TimeEDT,TemperatureF,Dew PointF,Humidity,Sea Level PressureIn,VisibilityMPH,Wind Direction,Wind SpeedMPH,Gust SpeedMPH,PrecipitationIn,Events,Conditions,WindDirDegrees,DateUTC
12:15 AM,41.0,32.0,70,29.65,10.0,SW,5.8,-,N/A,,Clear,230,2012-10-31 04:15:00
12:35 AM,41.0,32.0,70,29.65,10.0,SW,6.9,-,N/A,,Clear,220,2012-10-31 04:35:00
12:55 AM,41.0,32.0,70,29.65,10.0,SW,6.9,-,N/A,,Clear,230,2012-10-31 04:55:00
1:35 AM,41.0,32.0,70,29.65,10.0,SW,4.6,-,N/A,,Scattered Clouds,230,2012-10-31 05:35:00
1:55 AM,41.0,32.0,70,29.65,10.0,WSW,4.6,-,N/A,,Clear,240,2012-10-31 05:55:00
2:15 AM,41.0,32.0,70,29.65,10.0,SSW,4.6,-,N/A,,Clear,200,2012-10-31 06:15:00
2:35 AM,39.2,32.0,75,29.65,10.0,SSW,3.5,-,N/A,,Clear,210,2012-10-31 06:35:00
2:55 AM,39.2,32.0,75,29.66,10.0,SSW,4.6,-,N/A,,Clear,200,2012-10-31 06:55:00
3:15 AM,37.4,32.0,81,29.67,10.0,SW,5.8,-,N/A,,Clear,220,2012-10-31 07:15:00
3:35 AM,37.4,32.0,81,29.67,10.0,SSW,5.8,-,N/A,,Clear,210,2012-10-31 07:35:00
3:55 AM,37.4,32.0,81,29.67,10.0,SW,6.9,-,N/A,,Clear,220,2012-10-31 07:55:00
4:15 AM,37.4,32.0,81,29.67,10.0,SSW,5.8,-,N/A,,Clear,210,2012-10-31 08:15:00
4:35 AM,37.4,32.0,81,29.67,10.0,SW,5.8,-,N/A,,Clear,220,2012-10-31 08:35:00
4:55 AM,37.4,32.0,81,29.68,10.0,SSW,6.9,-,N/A,,Clear,210,2012-10-31 08:55:00
5:15 AM,37.4,32.0,81,29.68,10.0,SSW,4.6,-,N/A,,Clear,210,2012-10-31 09:15:00
5:35 AM,37.4,32.0,81,29.68,10.0,SSW,4.6,-,N/A,,Clear,210,2012-10-31 09:35:00
5:55 AM,37.4,32.0,81,29.69,10.0,South,3.5,-,N/A,,Clear,190,2012-10-31 09:55:00
6:15 AM,37.4,32.0,81,29.70,10.0,SSW,3.5,-,N/A,,Clear,200,2012-10-31 10:15:00
6:35 AM,35.6,32.0,87,29.70,10.0,SSW,4.6,-,N/A,,Clear,200,2012-10-31 10:35:00
6:55 AM,35.6,32.0,87,29.70,10.0,South,3.5,-,N/A,,Clear,190,2012-10-31 10:55:00
7:15 AM,35.6,32.0,87,29.71,10.0,SW,4.6,-,N/A,,Clear,220,2012-10-31 11:15:00
7:35 AM,35.6,32.0,87,29.71,10.0,SSW,4.6,-,N/A,,Clear,210,2012-10-31 11:35:00
7:55 AM,35.6,32.0,87,29.71,10.0,Calm,Calm,-,N/A,,Clear,0,2012-10-31 11:55:00
8:15 AM,35.6,32.0,87,29.72,10.0,SSW,4.6,-,N/A,,Clear,210,2012-10-31 12:15:00
8:35 AM,37.4,33.8,87,29.73,10.0,SSW,4.6,-,N/A,,Clear,210,2012-10-31 12:35:00
8:55 AM,39.2,33.8,81,29.73,10.0,SSW,4.6,-,N/A,,Clear,210,2012-10-31 12:55:00
9:15 AM,41.0,33.8,76,29.73,10.0,SW,4.6,-,N/A,,Clear,220,2012-10-31 13:15:00
9:35 AM,42.8,33.8,70,29.73,10.0,SW,5.8,-,N/A,,Clear,220,2012-10-31 13:35:00
9:55 AM,42.8,33.8,70,29.74,10.0,WSW,3.5,-,N/A,,Clear,240,2012-10-31 13:55:00
10:15 AM,44.6,33.8,66,29.74,10.0,WSW,4.6,-,N/A,,Scattered Clouds,250,2012-10-31 14:15:00
10:35 AM,44.6,33.8,66,29.73,10.0,West,4.6,-,N/A,,Scattered Clouds,270,2012-10-31 14:35:00
10:55 AM,46.4,33.8,62,29.73,10.0,WSW,5.8,-,N/A,,Scattered Clouds,250,2012-10-31 14:55:00
11:15 AM,46.4,33.8,62,29.73,10.0,SW,6.9,-,N/A,,Scattered Clouds,230,2012-10-31 15:15:00
11:35 AM,48.2,33.8,58,29.74,10.0,SW,8.1,-,N/A,,Scattered Clouds,230,2012-10-31 15:35:00
11:55 AM,48.2,33.8,58,29.73,10.0,WSW,8.1,-,N/A,,Scattered Clouds,250,2012-10-31 15:55:00
12:15 PM,50.0,33.8,54,29.73,10.0,West,6.9,-,N/A,,Scattered Clouds,270,2012-10-31 16:15:00
12:35 PM,50.0,33.8,54,29.73,10.0,WNW,6.9,-,N/A,,Scattered Clouds,290,2012-10-31 16:35:00
12:55 PM,50.0,33.8,54,29.73,10.0,WNW,9.2,-,N/A,,Scattered Clouds,290,2012-10-31 16:55:00
1:15 PM,50.0,33.8,54,29.73,10.0,WSW,8.1,-,N/A,,Mostly Cloudy,250,2012-10-31 17:15:00
1:35 PM,50.0,32.0,50,29.73,10.0,West,11.5,16.1,N/A,,Mostly Cloudy,280,2012-10-31 17:35:00
1:55 PM,51.8,32.0,47,29.73,10.0,West,5.8,-,N/A,,Mostly Cloudy,280,2012-10-31 17:55:00
2:15 PM,51.8,32.0,47,29.72,10.0,West,8.1,-,N/A,,Mostly Cloudy,270,2012-10-31 18:15:00
2:35 PM,51.8,32.0,47,29.72,10.0,West,6.9,-,N/A,,Scattered Clouds,270,2012-10-31 18:35:00
2:55 PM,51.8,32.0,47,29.72,10.0,West,10.4,16.1,N/A,,Mostly Cloudy,260,2012-10-31 18:55:00
3:15 PM,51.8,33.8,50,29.72,10.0,West,4.6,-,N/A,,Overcast,280,2012-10-31 19:15:00
3:35 PM,51.8,33.8,50,29.71,10.0,WNW,5.8,-,N/A,,Overcast,290,2012-10-31 19:35:00
3:55 PM,51.8,32.0,47,29.72,10.0,NW,9.2,16.1,N/A,,Mostly Cloudy,310,2012-10-31 19:55:00
4:15 PM,51.8,32.0,47,29.72,10.0,NW,6.9,-,N/A,,Scattered Clouds,320,2012-10-31 20:15:00
4:35 PM,51.8,33.8,50,29.72,10.0,NNW,6.9,-,N/A,,Clear,330,2012-10-31 20:35:00
4:55 PM,51.8,33.8,50,29.73,10.0,WNW,5.8,-,N/A,,Mostly Cloudy,300,2012-10-31 20:55:00
5:15 PM,50.0,33.8,54,29.74,10.0,NNW,4.6,-,N/A,,Mostly Cloudy,330,2012-10-31 21:15:00
5:35 PM,50.0,33.8,54,29.75,10.0,NW,6.9,-,N/A,,Mostly Cloudy,320,2012-10-31 21:35:00
5:55 PM,50.0,33.8,54,29.75,10.0,NNW,5.8,-,N/A,,Overcast,330,2012-10-31 21:55:00
6:15 PM,50.0,33.8,54,29.76,10.0,NW,3.5,-,N/A,,Overcast,310,2012-10-31 22:15:00
6:35 PM,48.2,33.8,58,29.76,10.0,NW,3.5,-,N/A,,Overcast,320,2012-10-31 22:35:00
6:55 PM,48.2,33.8,58,29.77,10.0,Calm,Calm,-,N/A,,Mostly Cloudy,0,2012-10-31 22:55:00
7:15 PM,46.4,33.8,62,29.77,10.0,Calm,Calm,-,N/A,,Mostly Cloudy,0,2012-10-31 23:15:00
7:35 PM,46.4,33.8,62,29.78,10.0,North,3.5,-,N/A,,Overcast,350,2012-10-31 23:35:00
7:55 PM,46.4,33.8,62,29.79,10.0,Calm,Calm,-,N/A,,Overcast,0,2012-10-31 23:55:00
8:15 PM,46.4,33.8,62,29.78,10.0,North,3.5,-,N/A,,Overcast,10,2012-11-01 00:15:00
8:35 PM,46.4,33.8,62,29.79,10.0,NNW,3.5,-,N/A,,Overcast,340,2012-11-01 00:35:00
8:55 PM,46.4,33.8,62,29.79,10.0,Calm,Calm,-,N/A,,Overcast,0,2012-11-01 00:55:00
9:15 PM,46.4,33.8,62,29.80,10.0,Calm,Calm,-,N/A,,Mostly Cloudy,0,2012-11-01 01:15:00
9:35 PM,46.4,33.8,62,29.79,10.0,Calm,Calm,-,N/A,,Overcast,0,2012-11-01 01:35:00
9:55 PM,46.4,33.8,62,29.80,10.0,Calm,Calm,-,N/A,,Overcast,0,2012-11-01 01:55:00
10:15 PM,46.4,33.8,62,29.80,10.0,NNE,4.6,-,N/A,,Overcast,20,2012-11-01 02:15:00
10:35 PM,46.4,33.8,62,29.80,10.0,Calm,Calm,-,N/A,,Overcast,0,2012-11-01 02:35:00
10:55 PM,46.4,33.8,62,29.80,10.0,Calm,Calm,-,N/A,,Overcast,0,2012-11-01 02:55:00
11:15 PM,46.4,33.8,62,29.80,10.0,Calm,Calm,-,N/A,,Overcast,0,2012-11-01 03:15:00
11:35 PM,44.6,33.8,66,29.81,10.0,Calm,Calm,-,N/A,,Overcast,0,2012-11-01 03:35:00
11:55 PM,44.6,35.6,71,29.81,10.0,Calm,Calm,-,N/A,,Overcast,0,2012-11-01 03:55:00